NOZ3747 EHAM-ENGM

Flight info

Callsign NOZ3747
Flight time 1h 26m
Altitude 37000
Route ANDIK Z733 KONOM DCT AMADA DCT PIPEX M609 RIPAM
Aircraft B738/M-SDE2E3FGHIRWXY/LB1

Departure

Time 2026-05-05 06:44
Airport Amsterdam Airport Schiphol (EHAM)

Arrival

Time 2026-05-05 08:11
Airport Oslo-Gardermoen International Airport (ENGM)
Time Latitude Longitude Altitude Speed Heading
2026-05-05 06:13 52.31213 4.76070 -3 ft 0 kts 85°
2026-05-05 06:31 52.31213 4.76068 -3 ft 2 kts 85°
2026-05-05 06:31 52.31211 4.76041 -3 ft 2 kts 85°
2026-05-05 06:31 52.31210 4.76014 -3 ft 2 kts 85°
2026-05-05 06:31 52.31209 4.75997 -3 ft 0 kts 85°
2026-05-05 06:39 52.31211 4.76001 -3 ft 2 kts 71°
2026-05-05 06:40 52.31222 4.76010 -4 ft 0 kts 10°
2026-05-05 06:40 52.31218 4.76009 -3 ft 2 kts
2026-05-05 06:40 52.31213 4.76004 -3 ft 1 kts 322°
2026-05-05 06:40 52.31217 4.75979 -3 ft 4 kts 278°
2026-05-05 06:41 52.31244 4.75939 -3 ft 7 kts 358°
2026-05-05 06:41 52.31305 4.75935 -3 ft 10 kts 356°
2026-05-05 06:41 52.31380 4.75928 -3 ft 11 kts 357°
2026-05-05 06:41 52.31456 4.75921 -3 ft 12 kts 355°
2026-05-05 06:42 52.31524 4.75849 -3 ft 14 kts 283°
2026-05-05 06:42 52.31521 4.75661 -4 ft 19 kts 267°
2026-05-05 06:42 52.31512 4.75424 -4 ft 23 kts 266°
2026-05-05 06:42 52.31503 4.75146 -4 ft 26 kts 267°
2026-05-05 06:43 52.31492 4.74862 -3 ft 24 kts 266°
2026-05-05 06:43 52.31522 4.74671 -3 ft 14 kts 335°
2026-05-05 06:43 52.31619 4.74665 -1 ft 14 kts 17°
2026-05-05 06:43 52.31670 4.74787 -2 ft 16 kts 86°
2026-05-05 06:44 52.31684 4.75215 -5 ft 75 kts 86°
2026-05-05 06:44 52.31730 4.76550 2 ft 157 kts 86°
2026-05-05 06:44 52.31801 4.78484 699 ft 170 kts 83°
2026-05-05 06:44 52.31898 4.80449 1701 ft 172 kts 82°
2026-05-05 06:45 52.32014 4.82503 2422 ft 197 kts 82°
2026-05-05 06:45 52.32148 4.84884 2690 ft 221 kts 83°
2026-05-05 06:45 52.32284 4.87446 3216 ft 232 kts 83°
2026-05-05 06:45 52.32554 4.90083 3759 ft 238 kts 66°
2026-05-05 06:46 52.33432 4.92395 4404 ft 246 kts 53°
2026-05-05 06:46 52.34469 4.94734 4925 ft 264 kts 54°
2026-05-05 06:46 52.35563 4.97203 5692 ft 270 kts 54°
2026-05-05 06:46 52.36673 4.99723 6557 ft 274 kts 54°
2026-05-05 06:47 52.37795 5.02280 7348 ft 279 kts 53°
2026-05-05 06:47 52.38931 5.04880 8158 ft 283 kts 53°
2026-05-05 06:47 52.40084 5.07526 8957 ft 287 kts 53°
2026-05-05 06:47 52.41243 5.10188 9735 ft 292 kts 53°
2026-05-05 06:48 52.42595 5.12699 10342 ft 300 kts 34°
2026-05-05 06:48 52.44536 5.14198 10541 ft 320 kts 14°
2026-05-05 06:48 52.46740 5.15184 10936 ft 335 kts 12°
2026-05-05 06:48 52.49021 5.16144 11592 ft 341 kts 12°
2026-05-05 06:49 52.51328 5.17117 12367 ft 344 kts 12°
2026-05-05 06:49 52.53655 5.18115 13120 ft 347 kts 12°
2026-05-05 06:49 52.56007 5.19139 13845 ft 351 kts 12°
2026-05-05 06:49 52.58386 5.20185 14492 ft 356 kts 13°
2026-05-05 06:50 52.60787 5.21248 15126 ft 360 kts 13°
2026-05-05 06:50 52.63186 5.22314 15762 ft 364 kts 13°
2026-05-05 06:50 52.65645 5.23410 16406 ft 368 kts 13°
2026-05-05 06:50 52.68129 5.24518 17043 ft 372 kts 12°
2026-05-05 06:51 52.70640 5.25639 17679 ft 376 kts 12°
2026-05-05 06:51 52.73174 5.26770 18302 ft 380 kts 12°
2026-05-05 06:51 52.75765 5.27712 18836 ft 382 kts
2026-05-05 06:51 52.78405 5.28317 19388 ft 384 kts
2026-05-05 06:52 52.81068 5.28880 19938 ft 388 kts
2026-05-05 06:52 52.83748 5.29476 20470 ft 391 kts
2026-05-05 06:52 52.86455 5.30121 21006 ft 395 kts
2026-05-05 06:52 52.89186 5.30795 21533 ft 398 kts
2026-05-05 06:53 52.91940 5.31483 22052 ft 402 kts
2026-05-05 06:53 52.94718 5.32179 22563 ft 405 kts
2026-05-05 06:53 52.97484 5.32871 23066 ft 408 kts
2026-05-05 06:53 53.00340 5.33585 23567 ft 411 kts
2026-05-05 06:54 53.03146 5.34286 23976 ft 414 kts
2026-05-05 06:54 53.06003 5.35000 24406 ft 417 kts
2026-05-05 06:54 53.08885 5.35720 24832 ft 419 kts
2026-05-05 06:54 53.11775 5.36443 25246 ft 421 kts
2026-05-05 06:55 53.14680 5.37171 25661 ft 423 kts
2026-05-05 06:55 53.17603 5.37904 26076 ft 425 kts
2026-05-05 06:55 53.20540 5.38641 26469 ft 428 kts
2026-05-05 06:55 53.23489 5.39383 26847 ft 430 kts
2026-05-05 06:56 53.26454 5.40130 27240 ft 432 kts
2026-05-05 06:56 53.29437 5.40882 27617 ft 434 kts
2026-05-05 06:56 53.32434 5.41639 27976 ft 436 kts
2026-05-05 06:56 53.35442 5.42399 28332 ft 439 kts
2026-05-05 06:57 53.38477 5.43168 28683 ft 441 kts
2026-05-05 06:57 53.41520 5.43940 29030 ft 443 kts
2026-05-05 06:57 53.44571 5.44715 29371 ft 445 kts
2026-05-05 06:57 53.47637 5.45496 29686 ft 447 kts
2026-05-05 06:58 53.50687 5.46273 30003 ft 449 kts
2026-05-05 06:58 53.53786 5.47064 30272 ft 451 kts
2026-05-05 06:58 53.56904 5.47861 30537 ft 453 kts
2026-05-05 06:58 53.60030 5.48660 30800 ft 455 kts
2026-05-05 06:59 53.63163 5.49534 31055 ft 457 kts 10°
2026-05-05 06:59 53.66220 5.51044 31387 ft 459 kts 17°
2026-05-05 06:59 53.69222 5.52851 31834 ft 456 kts 18°
2026-05-05 06:59 53.72196 5.54710 32240 ft 454 kts 19°
2026-05-05 07:00 53.75124 5.56552 32573 ft 453 kts 19°
2026-05-05 07:00 53.78079 5.58400 32893 ft 453 kts 18°
2026-05-05 07:00 53.81040 5.60237 33253 ft 452 kts 18°
2026-05-05 07:00 53.83986 5.62050 33618 ft 450 kts 18°
2026-05-05 07:01 53.86929 5.63855 33981 ft 449 kts 18°
2026-05-05 07:01 53.89863 5.65651 34261 ft 448 kts 18°
2026-05-05 07:01 53.92800 5.67448 34470 ft 449 kts 18°
2026-05-05 07:01 53.95750 5.69254 34641 ft 451 kts 18°
2026-05-05 07:02 53.98700 5.71064 34877 ft 451 kts 18°
2026-05-05 07:02 54.01658 5.72882 35130 ft 450 kts 18°
2026-05-05 07:02 54.04571 5.74676 35327 ft 451 kts 18°
2026-05-05 07:02 54.07524 5.76497 35519 ft 452 kts 18°
2026-05-05 07:03 54.10492 5.78331 35731 ft 452 kts 18°
2026-05-05 07:03 54.13447 5.80160 35948 ft 452 kts 18°
2026-05-05 07:03 54.16404 5.81993 36137 ft 453 kts 18°
2026-05-05 07:03 54.19379 5.83840 36308 ft 454 kts 18°
2026-05-05 07:04 54.22355 5.85690 36491 ft 455 kts 18°
2026-05-05 07:04 54.25331 5.87544 36687 ft 455 kts 18°
2026-05-05 07:04 54.28313 5.89403 36866 ft 456 kts 18°
2026-05-05 07:04 54.31263 5.91246 36994 ft 457 kts 18°
2026-05-05 07:05 54.34263 5.93122 36992 ft 460 kts 18°
2026-05-05 07:05 54.40282 5.96897 36994 ft 457 kts 18°
2026-05-05 07:06 54.46241 6.00647 36998 ft 454 kts 18°
2026-05-05 07:06 54.52157 6.04380 37002 ft 452 kts 18°
2026-05-05 07:07 54.58020 6.08090 37004 ft 451 kts 18°
2026-05-05 07:07 54.63918 6.11834 37004 ft 452 kts 18°
2026-05-05 07:08 54.69825 6.15595 37007 ft 453 kts 18°
2026-05-05 07:08 54.75751 6.19381 37008 ft 455 kts 18°
2026-05-05 07:09 54.81707 6.23197 37010 ft 457 kts 17°
2026-05-05 07:09 54.87685 6.27041 37012 ft 459 kts 18°
2026-05-05 07:10 54.93686 6.30912 37006 ft 461 kts 17°
2026-05-05 07:10 54.99707 6.34807 37006 ft 462 kts 17°
2026-05-05 07:11 55.05761 6.38657 37002 ft 463 kts 17°
2026-05-05 07:11 55.11785 6.42431 36998 ft 463 kts 17°
2026-05-05 07:12 55.17840 6.46240 36999 ft 462 kts 17°
2026-05-05 07:12 55.23891 6.50070 37002 ft 461 kts 17°
2026-05-05 07:13 55.29925 6.53908 37003 ft 461 kts 17°
2026-05-05 07:13 55.35949 6.57753 37003 ft 460 kts 17°
2026-05-05 07:14 55.41968 6.61607 37002 ft 459 kts 17°
2026-05-05 07:14 55.47936 6.65440 37000 ft 459 kts 17°
2026-05-05 07:15 55.53930 6.69302 37003 ft 459 kts 16°
2026-05-05 07:15 55.59930 6.73181 37000 ft 459 kts 16°
2026-05-05 07:16 55.65925 6.77069 36998 ft 459 kts 16°
2026-05-05 07:16 55.71928 6.80975 37000 ft 459 kts 16°
2026-05-05 07:17 55.77895 6.84870 36998 ft 460 kts 16°
2026-05-05 07:17 55.83902 6.88804 36999 ft 460 kts 16°
2026-05-05 07:18 55.89920 6.92759 37002 ft 461 kts 16°
2026-05-05 07:18 55.95954 6.96737 36998 ft 462 kts 16°
2026-05-05 07:19 56.01985 7.00727 36999 ft 462 kts 16°
2026-05-05 07:19 56.08027 7.04737 36999 ft 463 kts 16°
2026-05-05 07:20 56.14067 7.08760 36997 ft 463 kts 16°
2026-05-05 07:20 56.20078 7.12777 36998 ft 463 kts 16°
2026-05-05 07:21 56.26124 7.16831 36998 ft 463 kts 16°
2026-05-05 07:21 56.32164 7.20895 36999 ft 463 kts 16°
2026-05-05 07:22 56.38159 7.24941 36998 ft 463 kts 16°
2026-05-05 07:22 56.44191 7.29027 37004 ft 463 kts 16°
2026-05-05 07:23 56.50223 7.33126 36998 ft 463 kts 15°
2026-05-05 07:23 56.56256 7.37240 36997 ft 463 kts 15°
2026-05-05 07:24 56.62285 7.41365 36988 ft 463 kts 15°
2026-05-05 07:24 56.68310 7.45502 36996 ft 463 kts 15°
2026-05-05 07:25 56.74303 7.49631 36995 ft 463 kts 15°
2026-05-05 07:25 56.80334 7.53799 36994 ft 463 kts 15°
2026-05-05 07:26 56.86368 7.57986 36999 ft 464 kts 15°
2026-05-05 07:26 56.92411 7.62192 36994 ft 464 kts 15°
2026-05-05 07:27 56.97436 7.65701 36999 ft 464 kts 15°
2026-05-05 07:27 57.04457 7.70621 36991 ft 465 kts 15°
2026-05-05 07:28 57.09530 7.74188 36990 ft 465 kts 15°
2026-05-05 07:28 57.16556 7.79147 36989 ft 465 kts 15°
2026-05-05 07:29 57.21587 7.82709 36989 ft 466 kts 15°
2026-05-05 07:29 57.27637 7.87007 36979 ft 466 kts 15°
2026-05-05 07:30 57.33694 7.91326 36986 ft 466 kts 15°
2026-05-05 07:30 57.42774 7.97828 36980 ft 466 kts 15°
2026-05-05 07:31 57.48837 8.02189 36980 ft 467 kts 15°
2026-05-05 07:31 57.54858 8.06535 36982 ft 467 kts 15°
2026-05-05 07:32 57.60911 8.10921 36979 ft 467 kts 15°
2026-05-05 07:32 57.66967 8.15323 36977 ft 467 kts 15°
2026-05-05 07:33 57.73031 8.19748 36977 ft 467 kts 15°
2026-05-05 07:33 57.78955 8.24086 36973 ft 468 kts 15°
2026-05-05 07:34 57.85018 8.28542 36971 ft 468 kts 15°
2026-05-05 07:34 57.91085 8.33016 36972 ft 468 kts 15°
2026-05-05 07:35 57.97107 8.37474 36973 ft 469 kts 15°
2026-05-05 07:35 58.03209 8.42003 36498 ft 475 kts 15°
2026-05-05 07:36 58.06227 8.44253 36171 ft 469 kts 15°
2026-05-05 07:36 58.09252 8.46517 35736 ft 465 kts 15°
2026-05-05 07:36 58.12105 8.48656 35345 ft 461 kts 15°
2026-05-05 07:36 58.15077 8.50885 34938 ft 458 kts 14°
2026-05-05 07:37 58.18025 8.53099 34539 ft 454 kts 14°
2026-05-05 07:37 58.20957 8.55303 34136 ft 451 kts 14°
2026-05-05 07:37 58.23871 8.57496 33673 ft 449 kts 14°
2026-05-05 07:37 58.26766 8.59680 33246 ft 445 kts 14°
2026-05-05 07:38 58.29628 8.61842 32843 ft 442 kts 14°
2026-05-05 07:38 58.32472 8.63996 32458 ft 438 kts 14°
2026-05-05 07:38 58.35292 8.66135 32067 ft 434 kts 14°
2026-05-05 07:38 58.38096 8.68264 31688 ft 431 kts 13°
2026-05-05 07:39 58.40865 8.70371 31324 ft 428 kts 13°
2026-05-05 07:39 58.43628 8.72476 30953 ft 425 kts 13°
2026-05-05 07:39 58.46365 8.74566 30593 ft 423 kts 13°
2026-05-05 07:39 58.49093 8.76651 30234 ft 420 kts 13°
2026-05-05 07:40 58.51770 8.78701 29850 ft 418 kts 13°
2026-05-05 07:40 58.54467 8.80769 29428 ft 416 kts 13°
2026-05-05 07:40 58.57133 8.82820 29083 ft 411 kts 13°
2026-05-05 07:40 58.59778 8.84857 28689 ft 408 kts 13°
2026-05-05 07:41 58.62401 8.86881 28333 ft 405 kts 12°
2026-05-05 07:41 58.65003 8.88891 27970 ft 402 kts 12°
2026-05-05 07:41 58.67590 8.90890 27588 ft 399 kts 12°
2026-05-05 07:41 58.70151 8.92874 27258 ft 395 kts 12°
2026-05-05 07:42 58.72698 8.94850 26880 ft 393 kts 12°
2026-05-05 07:42 58.75235 8.96819 26523 ft 391 kts 12°
2026-05-05 07:42 58.77750 8.98775 26182 ft 389 kts 12°
2026-05-05 07:42 58.80222 9.00702 25852 ft 387 kts 12°
2026-05-05 07:43 58.82710 9.02645 25509 ft 385 kts 12°
2026-05-05 07:43 58.85142 9.04925 25146 ft 394 kts 22°
2026-05-05 07:43 58.87399 9.08037 24824 ft 399 kts 29°
2026-05-05 07:43 58.89571 9.11389 24484 ft 399 kts 30°
2026-05-05 07:44 58.91726 9.14785 24131 ft 399 kts 30°
2026-05-05 07:44 58.93875 9.18174 23787 ft 398 kts 30°
2026-05-05 07:44 58.96026 9.21543 23433 ft 397 kts 30°
2026-05-05 07:44 58.98179 9.24895 23015 ft 396 kts 30°
2026-05-05 07:45 59.00323 9.28222 22660 ft 394 kts 29°
2026-05-05 07:45 59.02462 9.31537 22290 ft 393 kts 29°
2026-05-05 07:45 59.04591 9.34838 21956 ft 390 kts 29°
2026-05-05 07:45 59.06709 9.38126 21589 ft 389 kts 29°
2026-05-05 07:46 59.08815 9.41400 21248 ft 387 kts 29°
2026-05-05 07:46 59.10911 9.44663 20907 ft 385 kts 29°
2026-05-05 07:46 59.12999 9.47921 20565 ft 384 kts 29°
2026-05-05 07:46 59.15079 9.51170 20218 ft 383 kts 29°
2026-05-05 07:47 59.17128 9.54377 19881 ft 382 kts 28°
2026-05-05 07:47 59.19212 9.57585 19542 ft 378 kts 25°
2026-05-05 07:47 59.21362 9.60482 19173 ft 374 kts 22°
2026-05-05 07:47 59.23544 9.63224 18834 ft 373 kts 21°
2026-05-05 07:48 59.25738 9.65955 18470 ft 374 kts 21°
2026-05-05 07:48 59.27927 9.68718 18098 ft 374 kts 21°
2026-05-05 07:48 59.30104 9.71509 17720 ft 372 kts 22°
2026-05-05 07:48 59.32260 9.74293 17420 ft 368 kts 22°
2026-05-05 07:49 59.34324 9.77145 17121 ft 371 kts 27°
2026-05-05 07:49 59.36341 9.80304 16764 ft 371 kts 30°
2026-05-05 07:49 59.38319 9.83539 16446 ft 368 kts 30°
2026-05-05 07:49 59.40278 9.86760 16116 ft 366 kts 31°
2026-05-05 07:50 59.42233 9.89951 15769 ft 364 kts 31°
2026-05-05 07:50 59.44179 9.93104 15432 ft 361 kts 31°
2026-05-05 07:50 59.46117 9.96229 15115 ft 358 kts 31°
2026-05-05 07:50 59.48045 9.99329 14765 ft 356 kts 31°
2026-05-05 07:51 59.49934 10.02368 14459 ft 353 kts 31°
2026-05-05 07:51 59.51832 10.05422 14110 ft 351 kts 32°
2026-05-05 07:51 59.53714 10.08454 13801 ft 348 kts 32°
2026-05-05 07:51 59.55579 10.11462 13448 ft 345 kts 32°
2026-05-05 07:52 59.57432 10.14453 13101 ft 342 kts 33°
2026-05-05 07:52 59.59262 10.17415 12772 ft 337 kts 33°
2026-05-05 07:52 59.61063 10.20335 12465 ft 333 kts 33°
2026-05-05 07:52 59.62850 10.23234 12105 ft 331 kts 33°
2026-05-05 07:53 59.64622 10.26108 11765 ft 329 kts 34°
2026-05-05 07:53 59.66384 10.28967 11436 ft 327 kts 34°
2026-05-05 07:53 59.68120 10.31796 11277 ft 318 kts 34°
2026-05-05 07:53 59.69806 10.34547 11152 ft 310 kts 34°
2026-05-05 07:54 59.71457 10.37208 11012 ft 300 kts 30°
2026-05-05 07:54 59.73270 10.38803 10892 ft 281 kts
2026-05-05 07:54 59.75137 10.38749 10885 ft 260 kts 343°
2026-05-05 07:54 59.76790 10.37609 10863 ft 244 kts 326°
2026-05-05 07:55 59.78126 10.35714 10870 ft 231 kts 317°
2026-05-05 07:55 59.79335 10.33658 10871 ft 228 kts 316°
2026-05-05 07:55 59.80532 10.31588 10878 ft 229 kts 316°
2026-05-05 07:55 59.81741 10.29505 10886 ft 231 kts 316°
2026-05-05 07:56 59.83114 10.27823 10875 ft 236 kts 335°
2026-05-05 07:56 59.84672 10.26734 10881 ft 238 kts 336°
2026-05-05 07:56 59.86234 10.25610 10866 ft 239 kts 336°
2026-05-05 07:56 59.87791 10.24472 10873 ft 237 kts 336°
2026-05-05 07:57 59.89337 10.23335 10869 ft 237 kts 335°
2026-05-05 07:57 59.90883 10.22196 10872 ft 236 kts 335°
2026-05-05 07:57 59.92458 10.21256 10854 ft 239 kts 349°
2026-05-05 07:57 59.94123 10.21120 10873 ft 240 kts 355°
2026-05-05 07:58 59.95776 10.21143 10884 ft 241 kts 355°
2026-05-05 07:58 59.97461 10.21157 10868 ft 242 kts 355°
2026-05-05 07:58 59.99146 10.21287 10848 ft 245 kts
2026-05-05 07:58 60.00655 10.22779 10873 ft 241 kts 38°
2026-05-05 07:59 60.01597 10.25502 10650 ft 242 kts 68°
2026-05-05 07:59 60.01815 10.28830 10362 ft 242 kts 92°
2026-05-05 07:59 60.01605 10.32164 10042 ft 241 kts 98°
2026-05-05 07:59 60.01310 10.35444 9740 ft 237 kts 99°
2026-05-05 08:00 60.01014 10.38625 9414 ft 229 kts 99°
2026-05-05 08:00 60.00733 10.41694 9145 ft 220 kts 99°
2026-05-05 08:00 60.00468 10.44647 8859 ft 212 kts 98°
2026-05-05 08:00 60.00217 10.47489 8622 ft 204 kts 98°
2026-05-05 08:01 59.99975 10.50253 8377 ft 199 kts 98°
2026-05-05 08:01 59.99821 10.52017 8242 ft 199 kts 98°
2026-05-05 08:01 59.99586 10.54705 8006 ft 193 kts 98°
2026-05-05 08:01 59.99361 10.57291 7740 ft 189 kts 98°
2026-05-05 08:02 59.99140 10.59853 7508 ft 186 kts 98°
2026-05-05 08:02 59.98920 10.62389 7390 ft 182 kts 98°
2026-05-05 08:02 59.98698 10.64936 7205 ft 190 kts 98°
2026-05-05 08:02 59.98472 10.67543 7009 ft 191 kts 98°
2026-05-05 08:03 59.98245 10.70143 6733 ft 188 kts 98°
2026-05-05 08:03 59.98025 10.72668 6545 ft 179 kts 98°
2026-05-05 08:03 59.97812 10.75070 6300 ft 173 kts 98°
2026-05-05 08:03 59.97607 10.77402 6074 ft 169 kts 98°
2026-05-05 08:04 59.97408 10.79721 5880 ft 170 kts 96°
2026-05-05 08:04 59.97558 10.81987 5688 ft 165 kts 69°
2026-05-05 08:04 59.97868 10.84204 5490 ft 168 kts 73°
2026-05-05 08:04 59.98149 10.86483 5271 ft 169 kts 73°
2026-05-05 08:05 59.98431 10.88770 5076 ft 170 kts 73°
2026-05-05 08:05 59.98713 10.91062 4864 ft 171 kts 73°
2026-05-05 08:05 59.98995 10.93350 4637 ft 167 kts 73°
2026-05-05 08:05 59.99430 10.95429 4402 ft 160 kts 46°
2026-05-05 08:06 60.00268 10.96793 4240 ft 155 kts 20°
2026-05-05 08:06 60.01288 10.97392 4103 ft 153 kts 12°
2026-05-05 08:06 60.02323 10.98015 3926 ft 157 kts 13°
2026-05-05 08:06 60.03348 10.98610 3731 ft 150 kts 11°
2026-05-05 08:07 60.04352 10.99149 3546 ft 154 kts 14°
2026-05-05 08:07 60.05375 10.99789 3344 ft 154 kts 13°
2026-05-05 08:07 60.06399 11.00393 3139 ft 152 kts 13°
2026-05-05 08:07 60.07407 11.00978 2930 ft 151 kts 12°
2026-05-05 08:08 60.08432 11.01569 2708 ft 155 kts 12°
2026-05-05 08:08 60.09456 11.02159 2517 ft 154 kts 12°
2026-05-05 08:08 60.10466 11.02744 2313 ft 149 kts 13°
2026-05-05 08:08 60.11458 11.03313 2126 ft 149 kts 12°
2026-05-05 08:09 60.12454 11.03890 1936 ft 149 kts 12°
2026-05-05 08:09 60.13452 11.04492 1773 ft 151 kts 14°
2026-05-05 08:09 60.14415 11.05048 1641 ft 154 kts 12°
2026-05-05 08:09 60.15433 11.05621 1495 ft 154 kts 13°
2026-05-05 08:10 60.16485 11.06222 1177 ft 159 kts 13°
2026-05-05 08:10 60.17545 11.06830 937 ft 157 kts 14°
2026-05-05 08:10 60.18591 11.07418 702 ft 153 kts 16°
2026-05-05 08:10 60.19540 11.07976 669 ft 127 kts 16°
2026-05-05 08:11 60.20240 11.08380 675 ft 82 kts 16°
2026-05-05 08:11 60.20610 11.08594 677 ft 34 kts 16°
2026-05-05 08:11 60.20673 11.08882 675 ft 25 kts 107°
2026-05-05 08:11 60.20667 11.08920 677 ft 0 kts 107°
2026-05-05 08:12 60.20665 11.08936 678 ft 4 kts 107°
2026-05-05 08:12 60.20647 11.09053 678 ft 14 kts 107°
2026-05-05 08:13 60.20565 11.09127 679 ft 17 kts 195°
2026-05-05 08:13 60.20380 11.09024 677 ft 23 kts 196°
2026-05-05 08:13 60.20279 11.08965 678 ft 22 kts 196°
2026-05-05 08:13 60.20131 11.08880 678 ft 22 kts 195°
2026-05-05 08:14 60.19986 11.08798 677 ft 21 kts 195°
2026-05-05 08:14 60.19846 11.08716 677 ft 21 kts 197°
2026-05-05 08:14 60.19757 11.08871 676 ft 20 kts 107°
2026-05-05 08:14 60.19719 11.09137 677 ft 19 kts 107°
2026-05-05 08:15 60.19680 11.09402 681 ft 20 kts 106°
2026-05-05 08:15 60.19643 11.09542 680 ft 8 kts 162°
2026-05-05 08:15 60.19577 11.09517 677 ft 9 kts 195°
2026-05-05 08:15 60.19554 11.09504 681 ft 0 kts 195°